Location: Santa Teresa Spring
(37.2333°N, 121.7000°W)
Time: 16:54:38
(UTC-07:00)

ISS - Visible Passes

Search period start: 19 September 2014 00:00
Search period end: 29 September 2014 00:00
Orbit: 414 x 417 km, 51.6° (Epoch: 19 September)

Date Brightness Start Highest point End Pass type
(mag) Time Alt. Az. Time Alt. Az. Time Alt. Az.
25 Sep -0.4 05:47:17 10° N 05:48:23 11° NNE 05:49:29 10° NE visible
27 Sep -0.8 05:44:52 10° NNW 05:47:23 20° NNE 05:49:53 10° ENE visible
28 Sep -0.5 04:57:19 13° N 04:58:03 14° NNE 04:59:54 10° ENE visible
28 Sep -3.2 06:31:51 10° NW 06:35:11 81° NE 06:38:30 10° SE visible
